Weather in Daytona Beach

United States     29°12′38″N   81°01′22″W
temp.,
°C
wind,
m/s
gust,
m/s
humid.,
%
clouds,
%
prec.,
mm/h
press.,
hPa
HPBL,
m
18 may, tue
tue1823:00+23e797038 0.1 1022917
02:00+23e7968100 0.1 10221013
05:00+23e796596 0.2 1021937
08:00+23e896693 0.2 10221411
11:00+25e786198 0.1 10241336
14:00+25e796199 0.1 10231405
17:00+24e796425 0.1 10221384
20:00+24e79705 0.1 10221045
19 may, wed
wed1923:00+23e797058 0.2 1023962
02:00+23e796892 0.3 10221060
05:00+24e796597 0.1 10211119
08:00+24e81071100 0.4 10221055
11:00+25e8967100 0.1 10241220
14:00+25e8106527 0.6 10231352
17:00+24e91071100 0.4 10231049
20:00+23e101272100 1.7 10231175
20 may, thu
thu2023:00+23e9116694 0.0 10241339
02:00+23e9106691 0.0 10231442
05:00+23e8106666 0.1 10221361
08:00+23e8106230 0.1 10241671
11:00+24e896061 0.0 10251570
14:00+24e9106482 0.3 10251364
17:00+24e910647 0.0 10241439
20:00+24e9106368 0.0 10241448
21 may, fri
fri2123:00+23e8116951 0.1 10251427
02:00+23e8106466 0.1 10251434
05:00+23e71069100 0.1 10251322
08:00+24e71069100 0.3 10261358
11:00+25ene796756 0.2 10271215
14:00+25ne79675 0.3 10261163
17:00+25ene79706 0.3 10251200
20:00+24ene797365 0.4 10251070
22 may, sat
sat2223:00+23ene7972100 0.3 10251074
02:00+23e6865100 0.3 10251244
05:00+22ene6865100 0.0 1023967
08:00+24ene6757100 0.1 10241510
11:00+24ene565537 0.0 10251330
14:00+25ne555942 0.1 10241308
17:00+24ne566499 0.0 10231006
20:00+23ene45656 0.0 1022807